Hourly Data Report for October 26, 2014

All times are specified in Local Standard Time (LST). Add 1 hour to adjust for Daylight Saving Time where and when it is observed.

FREDERICTON
NEW BRUNSWICK

45°52'08.000" N
66°32'14.000" W
20.70 m
8101505
71700
YFC

Download Data

Hourly Data (October 2014)
Hourly Data Report for October 26, 2014
Temp Definition
°C
Dew Point Temp Definition
°C
Rel Hum Definition
%
Wind Dir Definition
10's deg

Wind Spd Definition
km/h
Visibility Definition
km
Stn Press Definition
kPa
Hmdx Definition


Wind Chill Definition


Weather Definition


TIME
00:00 Legend Double Dagger 5.4 5.1 98   0 16.1 99.69     LegendNANA
01:00 Legend Double Dagger 5.4 5.3 99 7 11 16.1 99.63     LegendNANA
02:00 Legend Double Dagger 5.2 5.1 99 9 5 16.1 99.62     LegendNANA
03:00 Legend Double Dagger 5.2 4.9 98 9 9 16.1 99.55     LegendNANA
04:00 Legend Double Dagger 5.2 4.9 98 9 11 16.1 99.50     LegendNANA
05:00 Legend Double Dagger 5.3 5.2 99 5 11 16.1 99.47     LegendNANA
06:00 Legend Double Dagger 5.1 5.1 100 5 13 8.1 99.37     Rain,Fog
07:00 Legend Double Dagger 5.0 4.9 99 5 13 16.1 99.29     LegendNANA
08:00 Legend Double Dagger 4.8 4.7 99 4 11 16.1 99.32     Rain
09:00 Legend Double Dagger 5.1 5.0 99 4 9 12.9 99.29     Rain
10:00 Legend Double Dagger 5.4 5.1 98 36 9 16.1 99.25     Rain
11:00 Legend Double Dagger 5.8 5.7 99 36 9 8.1 99.20     Moderate Rain,Fog
12:00 Legend Double Dagger 6.5 6.1 97 35 5 16.1 99.17     LegendNANA
13:00 Legend Double Dagger 7.2 6.9 98 35 9 4.8 99.13     Fog
14:00 Legend Double Dagger 7.5 7.1 97 31 8 11.3 99.13     LegendNANA
15:00 Legend Double Dagger 8.3 7.2 93 35 9 16.1 99.17     LegendNANA
16:00 Legend Double Dagger 8.2 7.3 94 30 5 16.1 99.18     LegendNANA
17:00 Legend Double Dagger 8.1 6.7 91 36 9 16.1 99.23     LegendNANA
18:00 Legend Double Dagger 6.9 6.5 97 32 5 16.1 99.25     LegendNANA
19:00 Legend Double Dagger 6.2 5.9 98 LegendMM 4 16.1 99.31     LegendNANA
20:00 Legend Double Dagger 6.9 6.8 99 26 5 16.1 99.34     LegendNANA
21:00 Legend Double Dagger 7.8 7.1 95 29 9 16.1 99.35     LegendNANA
22:00 Legend Double Dagger 7.5 6.1 91 29 13 16.1 99.37     LegendNANA
23:00 Legend Double Dagger 7.1 5.4 89 29 11 16.1 99.41     LegendNANA

Notes on Data Quality.

Legend

  • E = Estimated
  • M = Missing
  • NA = Not Available
  • ‡ = Partner data that is not subject to review by the National Climate Archives
Date modified: